Time,TemperatureF,DewpointF,PressureIn,WindDirection,WindDirectionDegrees,WindSpeedMPH,WindSpeedGustMPH,Humidity,HourlyPrecipIn,Conditions,Clouds,dailyrainin,SoftwareType,DateUTC
2013-04-14 00:03:00,43.0,-99.9,30.08,WSW,250,1.0,4.0,-999,-99.99,,,-99.99,,2013-04-14 07:03:00,
2013-04-14 00:12:00,42.0,-99.9,30.07,South,180,2.0,5.0,-999,-99.99,,,-99.99,,2013-04-14 07:12:00,
2013-04-14 00:23:00,42.0,-99.9,30.07,ENE,71,3.0,4.0,-999,-99.99,,,-99.99,,2013-04-14 07:23:00,
2013-04-14 00:33:00,42.0,-99.9,30.08,SSE,148,5.0,6.0,-999,-99.99,,,-99.99,,2013-04-14 07:33:00,
2013-04-14 00:42:00,42.0,-99.9,30.08,SE,142,2.0,4.0,-999,-99.99,,,-99.99,,2013-04-14 07:42:00,
2013-04-14 00:53:00,42.0,-99.9,30.08,SW,233,2.0,4.0,-999,-99.99,,,-99.99,,2013-04-14 07:53:00,
2013-04-14 01:03:00,42.0,-99.9,30.08,South,184,1.0,2.0,-999,-99.99,,,-99.99,,2013-04-14 08:03:00,
2013-04-14 01:13:00,43.0,-99.9,30.08,SW,227,3.0,4.0,-999,-99.99,,,-99.99,,2013-04-14 08:13:00,
2013-04-14 01:23:00,42.0,-99.9,30.08,South,186,2.0,7.0,-999,-99.99,,,-99.99,,2013-04-14 08:23:00,
2013-04-14 01:33:00,42.0,-99.9,30.08,NE,42,0.0,3.0,-999,-99.99,,,-99.99,,2013-04-14 08:33:00,
2013-04-14 01:43:00,42.0,-99.9,30.08,ESE,110,6.0,8.0,-999,-99.99,,,-99.99,,2013-04-14 08:43:00,
2013-04-14 01:52:00,42.0,-99.9,30.08,ESE,104,6.0,9.0,-999,-99.99,,,-99.99,,2013-04-14 08:52:00,
2013-04-14 02:03:00,42.0,-99.9,30.07,SE,129,4.0,6.0,-999,-99.99,,,-99.99,,2013-04-14 09:03:00,
2013-04-14 02:12:00,42.0,-99.9,30.07,SE,137,5.0,8.0,-999,-99.99,,,-99.99,,2013-04-14 09:12:00,
2013-04-14 02:22:00,42.0,-99.9,30.07,SSE,149,4.0,6.0,-999,-99.99,,,-99.99,,2013-04-14 09:22:00,
2013-04-14 02:33:00,42.0,-99.9,30.07,SE,140,4.0,5.0,-999,-99.99,,,-99.99,,2013-04-14 09:33:00,
2013-04-14 02:43:00,42.0,-99.9,30.07,South,177,6.0,7.0,-999,-99.99,,,-99.99,,2013-04-14 09:43:00,
2013-04-14 02:54:00,42.0,-99.9,30.07,SSE,168,2.0,6.0,-999,-99.99,,,-99.99,,2013-04-14 09:54:00,
2013-04-14 03:03:00,42.0,-99.9,30.07,SSE,159,4.0,5.0,-999,-99.99,,,-99.99,,2013-04-14 10:03:00,
2013-04-14 03:13:00,42.0,-99.9,30.07,ESE,121,4.0,7.0,-999,-99.99,,,-99.99,,2013-04-14 10:13:00,
2013-04-14 03:23:00,42.0,-99.9,30.07,SSE,158,5.0,6.0,-999,-99.99,,,-99.99,,2013-04-14 10:23:00,
2013-04-14 03:33:00,42.0,-99.9,30.07,SE,128,4.0,6.0,-999,-99.99,,,-99.99,,2013-04-14 10:33:00,
2013-04-14 03:43:00,42.0,-99.9,30.06,ESE,119,4.0,6.0,-999,-99.99,,,-99.99,,2013-04-14 10:43:00,
2013-04-14 03:53:00,42.0,-99.9,30.06,ESE,116,2.0,4.0,-999,-99.99,,,-99.99,,2013-04-14 10:53:00,
2013-04-14 04:03:00,42.0,-99.9,30.06,ESE,116,4.0,5.0,-999,-99.99,,,-99.99,,2013-04-14 11:03:00,
2013-04-14 04:13:00,42.0,-99.9,30.06,SE,141,3.0,5.0,-999,-99.99,,,-99.99,,2013-04-14 11:13:00,
2013-04-14 04:23:00,42.0,-99.9,30.06,SE,132,3.0,4.0,-999,-99.99,,,-99.99,,2013-04-14 11:23:00,
2013-04-14 04:33:00,42.0,-99.9,30.06,SE,136,4.0,6.0,-999,-99.99,,,-99.99,,2013-04-14 11:33:00,
2013-04-14 04:42:00,42.0,-99.9,30.06,SSE,155,6.0,6.0,-999,-99.99,,,-99.99,,2013-04-14 11:42:00,
2013-04-14 04:53:00,42.0,-99.9,30.06,SSE,157,6.0,6.0,-999,-99.99,,,-99.99,,2013-04-14 11:53:00,
2013-04-14 05:02:00,42.0,-99.9,30.06,SE,129,4.0,8.0,-999,-99.99,,,-99.99,,2013-04-14 12:02:00,
2013-04-14 05:12:00,42.0,-99.9,30.06,SE,136,4.0,6.0,-999,-99.99,,,-99.99,,2013-04-14 12:12:00,
2013-04-14 05:32:00,42.0,-99.9,30.06,ESE,106,4.0,6.0,-999,-99.99,,,-99.99,,2013-04-14 12:32:00,
2013-04-14 05:42:00,42.0,-99.9,30.05,ESE,105,5.0,8.0,-999,-99.99,,,-99.99,,2013-04-14 12:42:00,
2013-04-14 05:52:00,42.0,-99.9,30.06,SSE,165,3.0,6.0,-999,-99.99,,,-99.99,,2013-04-14 12:52:00,
2013-04-14 06:02:00,42.0,-99.9,30.06,NNE,30,0.0,2.0,-999,-99.99,,,-99.99,,2013-04-14 13:02:00,
2013-04-14 06:12:00,42.0,-99.9,30.06,SE,143,3.0,4.0,-999,-99.99,,,-99.99,,2013-04-14 13:12:00,
2013-04-14 06:23:00,41.0,-99.9,30.06,East,100,2.0,3.0,-999,-99.99,,,-99.99,,2013-04-14 13:23:00,
2013-04-14 06:33:00,41.0,-99.9,30.06,ESE,122,5.0,7.0,-999,-99.99,,,-99.99,,2013-04-14 13:33:00,
2013-04-14 06:43:00,41.0,-99.9,30.05,SE,125,5.0,8.0,-999,-99.99,,,-99.99,,2013-04-14 13:43:00,
2013-04-14 06:52:00,41.0,-99.9,30.05,SE,142,6.0,8.0,-999,-99.99,,,-99.99,,2013-04-14 13:52:00,
2013-04-14 07:12:00,41.0,-99.9,30.06,ESE,114,4.0,6.0,-999,-99.99,,,-99.99,,2013-04-14 14:12:00,
2013-04-14 07:22:00,41.0,-99.9,30.05,SE,142,5.0,9.0,-999,-99.99,,,-99.99,,2013-04-14 14:22:00,
2013-04-14 07:32:00,41.0,-99.9,30.05,SSE,147,3.0,5.0,-999,-99.99,,,-99.99,,2013-04-14 14:32:00,
2013-04-14 07:42:00,41.0,-99.9,30.05,ESE,115,6.0,7.0,-999,-99.99,,,-99.99,,2013-04-14 14:42:00,
2013-04-14 07:53:00,41.0,-99.9,30.04,ESE,111,8.0,9.0,-999,-99.99,,,-99.99,,2013-04-14 14:53:00,
2013-04-14 08:03:00,41.0,-99.9,30.04,ESE,115,7.0,9.0,-999,-99.99,,,-99.99,,2013-04-14 15:03:00,
2013-04-14 08:13:00,42.0,-99.9,30.04,SE,134,5.0,7.0,-999,-99.99,,,-99.99,,2013-04-14 15:13:00,
2013-04-14 08:23:00,42.0,-99.9,30.04,ESE,118,3.0,8.0,-999,-99.99,,,-99.99,,2013-04-14 15:23:00,
2013-04-14 08:34:00,42.0,-99.9,30.04,SSE,152,6.0,7.0,-999,-99.99,,,-99.99,,2013-04-14 15:34:00,
2013-04-14 08:44:00,42.0,-99.9,30.04,SE,143,4.0,7.0,-999,-99.99,,,-99.99,,2013-04-14 15:44:00,
2013-04-14 08:53:00,42.0,-99.9,30.04,SE,127,2.0,4.0,-999,-99.99,,,-99.99,,2013-04-14 15:53:00,
2013-04-14 09:05:00,43.0,-99.9,30.04,SE,144,1.0,4.0,-999,-99.99,,,-99.99,,2013-04-14 16:05:00,
2013-04-14 09:13:00,43.0,-99.9,30.04,SE,124,3.0,5.0,-999,-99.99,,,-99.99,,2013-04-14 16:13:00,
2013-04-14 09:23:00,44.0,-99.9,30.04,East,97,2.0,4.0,-999,-99.99,,,-99.99,,2013-04-14 16:23:00,
2013-04-14 09:33:00,43.0,-99.9,30.03,ESE,102,6.0,8.0,-999,-99.99,,,-99.99,,2013-04-14 16:33:00,
2013-04-14 09:43:00,43.0,-99.9,30.03,ESE,119,7.0,10.0,-999,-99.99,,,-99.99,,2013-04-14 16:43:00,
2013-04-14 09:53:00,43.0,-99.9,30.04,ESE,112,7.0,9.0,-999,-99.99,,,-99.99,,2013-04-14 16:53:00,
2013-04-14 10:02:00,43.0,-99.9,30.04,ESE,118,9.0,11.0,-999,-99.99,,,-99.99,,2013-04-14 17:02:00,
2013-04-14 10:13:00,44.0,-99.9,30.04,SE,144,7.0,13.0,-999,-99.99,,,-99.99,,2013-04-14 17:13:00,
2013-04-14 10:23:00,44.0,-99.9,30.03,SE,127,6.0,11.0,-999,-99.99,,,-99.99,,2013-04-14 17:23:00,
2013-04-14 10:33:00,44.0,-99.9,30.03,ESE,112,8.0,10.0,-999,-99.99,,,-99.99,,2013-04-14 17:33:00,
2013-04-14 10:43:00,45.0,-99.9,30.02,ESE,119,8.0,11.0,-999,-99.99,,,-99.99,,2013-04-14 17:43:00,
2013-04-14 10:53:00,45.0,-99.9,30.03,ESE,112,6.0,10.0,-999,-99.99,,,-99.99,,2013-04-14 17:53:00,
2013-04-14 11:03:00,46.0,-99.9,30.03,ESE,122,4.0,8.0,-999,-99.99,,,-99.99,,2013-04-14 18:03:00,
2013-04-14 11:13:00,46.0,-99.9,30.02,SE,125,3.0,6.0,-999,-99.99,,,-99.99,,2013-04-14 18:13:00,
2013-04-14 11:22:00,46.0,-99.9,30.02,SE,133,4.0,4.0,-999,-99.99,,,-99.99,,2013-04-14 18:22:00,
2013-04-14 11:33:00,45.0,-99.9,30.02,SE,127,5.0,9.0,-999,-99.99,,,-99.99,,2013-04-14 18:33:00,
2013-04-14 11:43:00,46.0,-99.9,30.02,ESE,123,6.0,9.0,-999,-99.99,,,-99.99,,2013-04-14 18:43:00,
2013-04-14 11:54:00,47.0,-99.9,30.01,ESE,118,3.0,5.0,-999,-99.99,,,-99.99,,2013-04-14 18:54:00,
2013-04-14 12:04:00,46.0,-99.9,30.01,SE,124,7.0,11.0,-999,-99.99,,,-99.99,,2013-04-14 19:04:00,
2013-04-14 12:12:00,47.0,-99.9,30.01,ESE,119,6.0,8.0,-999,-99.99,,,-99.99,,2013-04-14 19:12:00,
2013-04-14 12:22:00,47.0,-99.9,30.01,ESE,122,3.0,5.0,-999,-99.99,,,-99.99,,2013-04-14 19:22:00,
2013-04-14 12:33:00,47.0,-99.9,30.01,ESE,103,4.0,5.0,-999,-99.99,,,-99.99,,2013-04-14 19:33:00,
2013-04-14 12:43:00,48.0,-99.9,30.00,SE,139,2.0,3.0,-999,-99.99,,,-99.99,,2013-04-14 19:43:00,
2013-04-14 12:53:00,48.0,-99.9,30.00,SE,137,3.0,4.0,-999,-99.99,,,-99.99,,2013-04-14 19:53:00,
2013-04-14 13:03:00,48.0,-99.9,29.99,South,170,4.0,6.0,-999,-99.99,,,-99.99,,2013-04-14 20:03:00,
2013-04-14 13:13:00,48.0,-99.9,29.99,SW,231,7.0,11.0,-999,-99.99,,,-99.99,,2013-04-14 20:13:00,
2013-04-14 13:22:00,48.0,-99.9,29.99,SSW,208,6.0,7.0,-999,-99.99,,,-99.99,,2013-04-14 20:22:00,
2013-04-14 13:33:00,49.0,-99.9,29.98,West,261,2.0,6.0,-999,-99.99,,,-99.99,,2013-04-14 20:33:00,
2013-04-14 13:43:00,51.0,-99.9,29.98,SSW,195,2.0,3.0,-999,-99.99,,,-99.99,,2013-04-14 20:43:00,
2013-04-14 13:53:00,50.0,-99.9,29.98,NNW,341,5.0,13.0,-999,-99.99,,,-99.99,,2013-04-14 20:53:00,
2013-04-14 14:02:00,49.0,-99.9,29.98,NNW,345,7.0,11.0,-999,-99.99,,,-99.99,,2013-04-14 21:02:00,
2013-04-14 14:13:00,46.0,-99.9,29.99,NNW,336,8.0,10.0,-999,-99.99,,,-99.99,,2013-04-14 21:13:00,
2013-04-14 14:23:00,45.0,-99.9,29.98,ESE,105,4.0,6.0,-999,-99.99,,,-99.99,,2013-04-14 21:23:00,
2013-04-14 14:33:00,45.0,-99.9,29.98,ESE,103,5.0,8.0,-999,-99.99,,,-99.99,,2013-04-14 21:33:00,
2013-04-14 14:43:00,46.0,-99.9,29.98,SE,134,4.0,6.0,-999,-99.99,,,-99.99,,2013-04-14 21:43:00,
2013-04-14 14:54:00,46.0,-99.9,29.98,SSE,159,8.0,9.0,-999,-99.99,,,-99.99,,2013-04-14 21:54:00,
2013-04-14 15:03:00,47.0,-99.9,29.97,SE,127,6.0,9.0,-999,-99.99,,,-99.99,,2013-04-14 22:03:00,
2013-04-14 15:13:00,47.0,-99.9,29.97,ESE,117,7.0,9.0,-999,-99.99,,,-99.99,,2013-04-14 22:13:00,
2013-04-14 15:23:00,47.0,-99.9,29.98,ESE,120,6.0,8.0,-999,-99.99,,,-99.99,,2013-04-14 22:23:00,
2013-04-14 15:33:00,48.0,-99.9,29.98,East,93,2.0,6.0,-999,-99.99,,,-99.99,,2013-04-14 22:33:00,
2013-04-14 15:44:00,46.0,-99.9,29.98,NW,306,6.0,9.0,-999,-99.99,,,-99.99,,2013-04-14 22:44:00,
2013-04-14 15:53:00,45.0,-99.9,29.98,NNE,18,4.0,6.0,-999,-99.99,,,-99.99,,2013-04-14 22:53:00,
2013-04-14 16:02:00,46.0,-99.9,29.98,SW,228,1.0,4.0,-999,-99.99,,,-99.99,,2013-04-14 23:02:00,
2013-04-14 16:13:00,46.0,-99.9,29.98,SW,228,1.0,4.0,-999,-99.99,,,-99.99,,2013-04-14 23:13:00,
2013-04-14 16:23:00,45.0,-99.9,29.97,South,180,8.0,9.0,-999,-99.99,,,-99.99,,2013-04-14 23:23:00,
2013-04-14 16:33:00,46.0,-99.9,29.97,South,179,6.0,8.0,-999,-99.99,,,-99.99,,2013-04-14 23:33:00,
2013-04-14 16:43:00,46.0,-99.9,29.96,SSE,162,6.0,9.0,-999,-99.99,,,-99.99,,2013-04-14 23:43:00,
2013-04-14 16:53:00,48.0,-99.9,29.97,NNE,30,0.0,3.0,-999,-99.99,,,-99.99,,2013-04-14 23:53:00,
2013-04-14 17:02:00,48.0,-99.9,29.97,North,355,2.0,3.0,-999,-99.99,,,-99.99,,2013-04-15 00:02:00,
2013-04-14 17:13:00,47.0,-99.9,29.97,North,355,7.0,11.0,-999,-99.99,,,-99.99,,2013-04-15 00:13:00,
2013-04-14 17:23:00,46.0,-99.9,29.97,NE,40,1.0,5.0,-999,-99.99,,,-99.99,,2013-04-15 00:23:00,
2013-04-14 17:33:00,46.0,-99.9,29.98,North,353,3.0,4.0,-999,-99.99,,,-99.99,,2013-04-15 00:33:00,
2013-04-14 17:43:00,45.0,-99.9,29.97,SE,139,2.0,4.0,-999,-99.99,,,-99.99,,2013-04-15 00:43:00,
2013-04-14 17:53:00,46.0,-99.9,29.97,East,101,3.0,4.0,-999,-99.99,,,-99.99,,2013-04-15 00:53:00,
2013-04-14 18:03:00,46.0,-99.9,29.97,ESE,106,6.0,7.0,-999,-99.99,,,-99.99,,2013-04-15 01:03:00,
2013-04-14 18:13:00,45.0,-99.9,29.97,SSE,150,6.0,8.0,-999,-99.99,,,-99.99,,2013-04-15 01:13:00,
2013-04-14 18:23:00,46.0,-99.9,29.96,ESE,114,3.0,4.0,-999,-99.99,,,-99.99,,2013-04-15 01:23:00,
2013-04-14 18:33:00,46.0,-99.9,29.96,ESE,117,2.0,6.0,-999,-99.99,,,-99.99,,2013-04-15 01:33:00,
2013-04-14 18:43:00,46.0,-99.9,29.96,ESE,121,5.0,8.0,-999,-99.99,,,-99.99,,2013-04-15 01:43:00,
2013-04-14 18:52:00,46.0,-99.9,29.97,East,94,3.0,6.0,-999,-99.99,,,-99.99,,2013-04-15 01:52:00,
2013-04-14 19:03:00,46.0,-99.9,29.97,NNW,344,4.0,8.0,-999,-99.99,,,-99.99,,2013-04-15 02:03:00,
2013-04-14 19:13:00,46.0,-99.9,29.97,NNW,344,4.0,6.0,-999,-99.99,,,-99.99,,2013-04-15 02:13:00,
2013-04-14 19:22:00,46.0,-99.9,29.98,West,280,4.0,8.0,-999,-99.99,,,-99.99,,2013-04-15 02:22:00,
2013-04-14 19:32:00,45.0,-99.9,29.97,WSW,247,5.0,9.0,-999,-99.99,,,-99.99,,2013-04-15 02:32:00,
2013-04-14 19:42:00,45.0,-99.9,29.97,SW,221,3.0,5.0,-999,-99.99,,,-99.99,,2013-04-15 02:42:00,
2013-04-14 19:53:00,44.0,-99.9,29.97,WSW,238,3.0,5.0,-999,-99.99,,,-99.99,,2013-04-15 02:53:00,
2013-04-14 20:03:00,44.0,-99.9,29.97,SSW,208,2.0,3.0,-999,-99.99,,,-99.99,,2013-04-15 03:03:00,
2013-04-14 20:12:00,44.0,-99.9,29.96,SSW,192,3.0,5.0,-999,-99.99,,,-99.99,,2013-04-15 03:12:00,
2013-04-14 20:22:00,45.0,-99.9,29.97,WSW,240,5.0,6.0,-999,-99.99,,,-99.99,,2013-04-15 03:22:00,
2013-04-14 20:33:00,45.0,-99.9,29.97,North,-999,3.0,4.0,-999,-99.99,,,-99.99,,2013-04-15 03:33:00,
2013-04-14 20:43:00,45.0,-99.9,29.98,North,8,1.0,4.0,-999,-99.99,,,-99.99,,2013-04-15 03:43:00,
2013-04-14 20:55:00,44.0,-99.9,29.98,NNW,346,9.0,13.0,-999,-99.99,,,-99.99,,2013-04-15 03:55:00,
2013-04-14 21:03:00,44.0,-99.9,29.98,NNW,336,6.0,12.0,-999,-99.99,,,-99.99,,2013-04-15 04:03:00,
2013-04-14 21:13:00,44.0,-99.9,29.98,NNE,12,3.0,4.0,-999,-99.99,,,-99.99,,2013-04-15 04:13:00,
2013-04-14 21:23:00,44.0,-99.9,29.98,SSE,164,2.0,3.0,-999,-99.99,,,-99.99,,2013-04-15 04:23:00,
2013-04-14 21:33:00,44.0,-99.9,29.98,SE,126,3.0,4.0,-999,-99.99,,,-99.99,,2013-04-15 04:33:00,
2013-04-14 21:43:00,44.0,-99.9,29.99,SSE,158,3.0,4.0,-999,-99.99,,,-99.99,,2013-04-15 04:43:00,
2013-04-14 21:53:00,43.0,-99.9,29.99,WSW,242,2.0,5.0,-999,-99.99,,,-99.99,,2013-04-15 04:53:00,
2013-04-14 22:03:00,44.0,-99.9,29.99,WSW,252,2.0,4.0,-999,-99.99,,,-99.99,,2013-04-15 05:03:00,
2013-04-14 22:13:00,43.0,-99.9,29.99,WSW,239,2.0,4.0,-999,-99.99,,,-99.99,,2013-04-15 05:13:00,
2013-04-14 22:23:00,43.0,-99.9,29.99,WSW,250,2.0,3.0,-999,-99.99,,,-99.99,,2013-04-15 05:23:00,
2013-04-14 22:33:00,42.0,-99.9,29.99,SW,214,3.0,4.0,-999,-99.99,,,-99.99,,2013-04-15 05:33:00,
2013-04-14 22:43:00,42.0,-99.9,29.99,SW,231,2.0,3.0,-999,-99.99,,,-99.99,,2013-04-15 05:43:00,
2013-04-14 22:53:00,42.0,-99.9,29.98,SW,231,2.0,3.0,-999,-99.99,,,-99.99,,2013-04-15 05:53:00,
2013-04-14 23:02:00,42.0,-99.9,29.98,SSW,207,2.0,3.0,-999,-99.99,,,-99.99,,2013-04-15 06:02:00,
2013-04-14 23:12:00,42.0,-99.9,29.98,SE,143,1.0,2.0,-999,-99.99,,,-99.99,,2013-04-15 06:12:00,
2013-04-14 23:23:00,42.0,-99.9,29.98,NW,310,0.0,1.0,-999,-99.99,,,-99.99,,2013-04-15 06:23:00,
2013-04-14 23:34:00,42.0,-99.9,29.98,NNW,335,1.0,2.0,-999,-99.99,,,-99.99,,2013-04-15 06:34:00,
2013-04-14 23:43:00,42.0,-99.9,29.98,SSW,199,2.0,3.0,-999,-99.99,,,-99.99,,2013-04-15 06:43:00,
2013-04-14 23:53:00,42.0,-99.9,29.98,North,356,2.0,3.0,-999,-99.99,,,-99.99,,2013-04-15 06:53:00,